User: anonymous   Login
Location: Unspecified
(0.0000°N, 0.0000°E)
Time: 23:59:10
(UTC+00:00)
Language:

STARLINK-2113 - Orbit

View from above orbital plane
View from above orbital plane
View from above satellite
View from above satellite

Ground track
Ground track

The orbit is defined by the following mean orbital elements,

1 47392U          26145.59686312 +.00000000 +00000-0 +74499-3 0 00002
2 47392  53.0455 357.7022 0002748 103.4541 256.6784 15.75787854    09
Epoch (UTC): 25 May 2026 14:19:28
Eccentricity: 0.0002748
inclination: 53.0455°
perigee height: 341 km
apogee height: 344 km
right ascension of ascending node: 357.7022°
argument of perigee: 103.4541°
revolutions per day: 15.75787854
mean anomaly at epoch: 256.6784°

The dashed part of the orbit path shows where the satellite is in the earth's shadow,  

DLR